When you browse on this site, cookies collect data to enhance your experience and personalize the content and advertising you see.
Visit our Privacy Policy to learn more. By continuing to use the site, you agree to this use of cookies and data.
  • Em Portugal
  • Lista de países
  • Para 7 dias
  • Temperatura da água
  • Mapas de satélite
  • Mapa do tempo
  • Widgets de tempo
  • user-avatar
    Iniciar Sessão

    Previsão horária em Snezhnoe

    Hoje, 27 Maio, Segunda-feira

    Tempo Temperatura Precipitação Vento Pressão Humidade
    00:00 +16°C° 0 mm 3 m/s 734 mmHg 89%
    01:00 +14°C° 0 mm 3 m/s 734 mmHg 90%
    02:00 +14°C° 0 mm 3 m/s 734 mmHg 91%
    03:00 +15°C° 0 mm 2 m/s 734 mmHg 93%
    04:00 +15°C° 0 mm 2 m/s 734 mmHg 92%
    05:00 +15°C° 0 mm 2 m/s 735 mmHg 91%
    06:00 +16°C° 0 mm 2 m/s 736 mmHg 90%
    07:00 +17°C° 0.1 mm 3 m/s 736 mmHg 84%
    08:00 +19°C° 0.1 mm 3 m/s 736 mmHg 77%
    09:00 +21°C° 0.1 mm 3 m/s 737 mmHg 70%
    10:00 +22°C° 0.1 mm 4 m/s 737 mmHg 65%
    11:00 +23°C° 0.1 mm 4 m/s 737 mmHg 60%
    12:00 +25°C° 0.1 mm 4 m/s 738 mmHg 55%
    13:00 +25°C° 0.2 mm 4 m/s 738 mmHg 54%
    14:00 +25°C° 0.2 mm 4 m/s 738 mmHg 54%
    15:00 +25°C° 0.2 mm 4 m/s 738 mmHg 53%
    16:00 +25°C° 0.1 mm 4 m/s 738 mmHg 56%
    17:00 +24°C° 0.1 mm 3 m/s 738 mmHg 59%
    18:00 +24°C° 0.1 mm 3 m/s 739 mmHg 62%
    19:00 +21°C° 0 mm 2 m/s 739 mmHg 65%
    20:00 +19°C° 0 mm 2 m/s 739 mmHg 68%
    21:00 +18°C° 0 mm 2 m/s 739 mmHg 71%
    22:00 +18°C° 0 mm 1 m/s 739 mmHg 72%
    23:00 +18°C° 0 mm 1 m/s 739 mmHg 73%

    Amanhã, 28 Maio, Terça-feira

    Tempo Temperatura Precipitação Vento Pressão Humidade
    00:00 +16°C° 0 mm 1 m/s 739 mmHg 74%
    01:00 +16°C° 0 mm 1 m/s 739 mmHg 76%
    02:00 +15°C° 0 mm 0 m/s 739 mmHg 77%
    03:00 +14°C° 0 mm 0 m/s 740 mmHg 79%
    04:00 +15°C° 0 mm 0 m/s 740 mmHg 78%
    05:00 +16°C° 0 mm 0 m/s 740 mmHg 77%
    06:00 +16°C° 0 mm 0 m/s 740 mmHg 77%
    07:00 +18°C° 0 mm 0 m/s 740 mmHg 71%
    08:00 +20°C° 0 mm 0 m/s 740 mmHg 66%
    09:00 +21°C° 0 mm 0 m/s 741 mmHg 60%
    10:00 +22°C° 0 mm 0 m/s 741 mmHg 57%
    11:00 +23°C° 0 mm 0 m/s 741 mmHg 54%
    12:00 +25°C° 0 mm 0 m/s 741 mmHg 50%
    13:00 +25°C° 0 mm 0 m/s 741 mmHg 50%
    14:00 +24°C° 0 mm 0 m/s 741 mmHg 49%
    15:00 +26°C° 0 mm 1 m/s 741 mmHg 48%
    16:00 +26°C° 0 mm 1 m/s 740 mmHg 51%
    17:00 +26°C° 0 mm 1 m/s 740 mmHg 54%
    18:00 +26°C° 0 mm 1 m/s 740 mmHg 57%
    19:00 +24°C° 0 mm 1 m/s 740 mmHg 60%
    20:00 +23°C° 0 mm 2 m/s 740 mmHg 64%
    21:00 +20°C° 0 mm 2 m/s 740 mmHg 68%
    22:00 +19°C° 0 mm 2 m/s 740 mmHg 70%
    23:00 +19°C° 0 mm 2 m/s 740 mmHg 72%

    Depois de amanhã, 29 Maio, Quarta-feira

    Tempo Temperatura Precipitação Vento Pressão Humidade
    00:00 +18°C° 0 mm 2 m/s 740 mmHg 74%
    01:00 +18°C° 0 mm 2 m/s 740 mmHg 75%
    02:00 +17°C° 0 mm 2 m/s 740 mmHg 76%
    03:00 +18°C° 0 mm 1 m/s 740 mmHg 77%
    04:00 +18°C° 0 mm 1 m/s 740 mmHg 78%
    05:00 +17°C° 0 mm 2 m/s 740 mmHg 79%
    06:00 +18°C° 0 mm 2 m/s 740 mmHg 80%
    07:00 +19°C° 0 mm 3 m/s 740 mmHg 75%
    08:00 +21°C° 0 mm 3 m/s 740 mmHg 69%
    09:00 +23°C° 0 mm 4 m/s 740 mmHg 64%
    10:00 +25°C° 0 mm 4 m/s 740 mmHg 62%
    11:00 +26°C° 0 mm 4 m/s 740 mmHg 60%
    12:00 +27°C° 0 mm 5 m/s 740 mmHg 57%
    13:00 +27°C° 0 mm 4 m/s 740 mmHg 57%
    14:00 +27°C° 0 mm 4 m/s 740 mmHg 56%
    15:00 +28°C° 0 mm 4 m/s 740 mmHg 55%
    16:00 +27°C° 0 mm 4 m/s 740 mmHg 58%
    17:00 +27°C° 0 mm 4 m/s 740 mmHg 60%
    18:00 +27°C° 0 mm 3 m/s 739 mmHg 63%
    19:00 +25°C° 0 mm 3 m/s 739 mmHg 68%
    20:00 +22°C° 0 mm 3 m/s 739 mmHg 73%
    21:00 +20°C° 0 mm 3 m/s 739 mmHg 77%
    22:00 +20°C° 0 mm 3 m/s 739 mmHg 77%
    23:00 +19°C° 0 mm 3 m/s 739 mmHg 78%

    30 Maio, Quinta-feira

    Tempo Temperatura Precipitação Vento Pressão Humidade
    00:00 +18°C° 0 mm 3 m/s 739 mmHg 78%
    01:00 +18°C° 0 mm 3 m/s 739 mmHg 77%
    02:00 +18°C° 0 mm 2 m/s 739 mmHg 76%
    03:00 +17°C° 0 mm 2 m/s 739 mmHg 75%
    04:00 +18°C° 0 mm 2 m/s 739 mmHg 75%
    05:00 +18°C° 0 mm 2 m/s 739 mmHg 75%
    06:00 +18°C° 0 mm 3 m/s 739 mmHg 76%
    07:00 +20°C° 0 mm 3 m/s 739 mmHg 70%
    08:00 +22°C° 0 mm 4 m/s 740 mmHg 64%
    09:00 +25°C° 0 mm 5 m/s 740 mmHg 59%
    10:00 +26°C° 0 mm 5 m/s 740 mmHg 55%
    11:00 +27°C° 0 mm 5 m/s 740 mmHg 52%
    12:00 +28°C° 0 mm 5 m/s 739 mmHg 49%
    13:00 +28°C° 0 mm 5 m/s 739 mmHg 48%
    14:00 +29°C° 0 mm 4 m/s 739 mmHg 48%
    15:00 +29°C° 0 mm 4 m/s 739 mmHg 48%
    16:00 +29°C° 0 mm 4 m/s 739 mmHg 52%
    17:00 +28°C° 0 mm 3 m/s 739 mmHg 56%
    18:00 +28°C° 0 mm 3 m/s 739 mmHg 59%
    19:00 +26°C° 0 mm 3 m/s 739 mmHg 63%
    20:00 +24°C° 0 mm 3 m/s 738 mmHg 68%
    21:00 +21°C° 0 mm 3 m/s 738 mmHg 72%
    22:00 +20°C° 0 mm 3 m/s 738 mmHg 72%
    23:00 +20°C° 0 mm 3 m/s 738 mmHg 72%

    31 Maio, Sexta-feira

    Tempo Temperatura Precipitação Vento Pressão Humidade
    00:00 +19°C° 0 mm 2 m/s 738 mmHg 73%
    01:00 +19°C° 0 mm 3 m/s 738 mmHg 72%
    02:00 +18°C° 0 mm 3 m/s 738 mmHg 71%
    03:00 +18°C° 0 mm 3 m/s 738 mmHg 71%
    04:00 +18°C° 0 mm 3 m/s 738 mmHg 72%
    05:00 +18°C° 0 mm 3 m/s 738 mmHg 74%
    06:00 +18°C° 0 mm 3 m/s 738 mmHg 75%
    07:00 +21°C° 0 mm 4 m/s 738 mmHg 70%
    08:00 +23°C° 0 mm 4 m/s 738 mmHg 64%
    09:00 +26°C° 0 mm 4 m/s 738 mmHg 59%
    10:00 +27°C° 0 mm 5 m/s 738 mmHg 55%
    11:00 +28°C° 0 mm 5 m/s 738 mmHg 50%
    12:00 +30°C° 0 mm 5 m/s 738 mmHg 46%
    13:00 +30°C° 0 mm 5 m/s 737 mmHg 46%
    14:00 +30°C° 0 mm 5 m/s 737 mmHg 46%
    15:00 +30°C° 0 mm 5 m/s 737 mmHg 47%
    16:00 +30°C° 0 mm 4 m/s 737 mmHg 51%
    17:00 +29°C° 0 mm 3 m/s 736 mmHg 55%
    18:00 +29°C° 0 mm 3 m/s 736 mmHg 60%
    19:00 +27°C° 0 mm 3 m/s 736 mmHg 63%
    20:00 +25°C° 0 mm 3 m/s 736 mmHg 67%
    21:00 +22°C° 0 mm 3 m/s 736 mmHg 71%
    22:00 +22°C° 0 mm 3 m/s 736 mmHg 71%
    23:00 +21°C° 0 mm 3 m/s 736 mmHg 71%

    1 Junho, Sábado

    Tempo Temperatura Precipitação Vento Pressão Humidade
    00:00 +21°C° 0 mm 3 m/s 735 mmHg 71%
    01:00 +21°C° 0 mm 4 m/s 735 mmHg 70%
    02:00 +20°C° 0 mm 4 m/s 735 mmHg 69%
    03:00 +20°C° 0 mm 4 m/s 735 mmHg 68%
    04:00 +20°C° 0 mm 4 m/s 735 mmHg 69%
    05:00 +20°C° 0 mm 4 m/s 735 mmHg 71%
    06:00 +20°C° 0 mm 3 m/s 735 mmHg 73%
    07:00 +22°C° 0 mm 4 m/s 735 mmHg 66%
    08:00 +25°C° 0 mm 4 m/s 735 mmHg 60%
    09:00 +27°C° 0 mm 5 m/s 735 mmHg 54%
    10:00 +28°C° 0 mm 6 m/s 735 mmHg 50%
    11:00 +30°C° 0 mm 6 m/s 735 mmHg 46%
    12:00 +32°C° 0 mm 7 m/s 735 mmHg 42%
    13:00 +32°C° 0 mm 7 m/s 735 mmHg 42%
    14:00 +32°C° 0 mm 7 m/s 734 mmHg 41%
    15:00 +32°C° 0 mm 7 m/s 734 mmHg 41%
    16:00 +32°C° 0 mm 5 m/s 734 mmHg 46%
    17:00 +30°C° 0 mm 4 m/s 734 mmHg 52%
    18:00 +30°C° 0 mm 3 m/s 734 mmHg 57%
    19:00 +28°C° 0 mm 2 m/s 734 mmHg 59%
    20:00 +26°C° 0 mm 2 m/s 733 mmHg 62%
    21:00 +24°C° 0 mm 2 m/s 733 mmHg 64%
    22:00 +23°C° 0 mm 2 m/s 733 mmHg 63%
    23:00 +21°C° 0 mm 2 m/s 733 mmHg 63%
    Mostrar mais